Marvel — V7OZ3 — position and weather

sailwx.info

Track history (hours):
 
Tides and Currents Weather Stations Pressure Air Temp Water Temp Dewpoint Dewpoint Depression Visibility Wind Speed Wind Dir Waves Ship Positions

Marvel

Last reported at 2014-Oct-24 14:31 UTC. Time now 2014-Oct-31 10:38 UTC.
Position N 01°12' E 103°51'.

Length 183 m; draft 9.8 m.

Type: Tanker. MMSI: 538003191.

Date/timePositionNaut miles runAvg speedWind from/ knotsBaromVisibWave heightAir tempDewpointWater temp
2014-Oct-24 14:31N 01°12' E 103°51'1313.5
2014-Oct-24 13:33N 01°16' E 104°04'  
2014-Oct-15 11:33N 36°42' E 122°49'1010.1
2014-Oct-15 10:33N 36°52' E 122°47'1110.8
2014-Oct-15 09:33N 37°03' E 122°47'1211.6
2014-Oct-15 08:33N 37°15' E 122°47'1211.4
2014-Oct-15 07:28N 37°27' E 122°46'1112.0
2014-Oct-15 06:32N 37°36' E 122°38'1111.3
2014-Oct-15 05:33N 37°45' E 122°30'3810.9
2014-Oct-15 02:03N 38°07' E 121°50'511.1
2014-Oct-15 01:33N 38°09' E 121°44'1111.1
2014-Oct-15 00:33N 38°15' E 121°32'1110.9
2014-Oct-14 23:33N 38°22' E 121°21'  
Track history (hours):
 
Tides and Currents Weather Stations Pressure Air Temp Water Temp Dewpoint Dewpoint Depression Visibility Wind Speed Wind Dir Waves Ship Positions

Marvel

Last reported at 2014-Oct-24 14:31 UTC. Time now 2014-Oct-31 10:38 UTC.
Position N 01°12' E 103°51'.

Length 183 m; draft 9.8 m.

Type: Tanker. MMSI: 538003191.

Date/timePositionNaut miles runAvg speedWind from/ knotsBaromVisibWave heightAir tempDewpointWater temp
2014-Oct-24 14:31N 01°12' E 103°51'1313.5
2014-Oct-24 13:33N 01°16' E 104°04'  
2014-Oct-15 11:33N 36°42' E 122°49'1010.1
2014-Oct-15 10:33N 36°52' E 122°47'1110.8
2014-Oct-15 09:33N 37°03' E 122°47'1211.6
2014-Oct-15 08:33N 37°15' E 122°47'1211.4
2014-Oct-15 07:28N 37°27' E 122°46'1112.0
2014-Oct-15 06:32N 37°36' E 122°38'1111.3
2014-Oct-15 05:33N 37°45' E 122°30'3810.9
2014-Oct-15 02:03N 38°07' E 121°50'511.1
2014-Oct-15 01:33N 38°09' E 121°44'1111.1
2014-Oct-15 00:33N 38°15' E 121°32'1110.9
2014-Oct-14 23:33N 38°22' E 121°21'  

Dump ship's entire track history